Valladolid Airport, Spain

9:18 PM CEST on April 25, 2017 (GMT +0200)
Villanubla

Weather History for LEVD - February, 2013

Change the Weather History Date:

Monday, February 11, 2013

  Actual Average Record
Temperature  
Mean Temperature 36 °F -  
Max Temperature 42 °F - - ()
Min Temperature 30 °F - - ()
Degree Days  
Heating Degree Days 29    
Moisture  
Dew Point 27 °F    
Average Humidity 71    
Maximum Humidity 100    
Minimum Humidity 49    
Precipitation  
Precipitation 0.00 in - - ()
Sea Level Pressure  
Sea Level Pressure 29.81 in    
Wind  
Wind Speed 15 mph ()    
Max Wind Speed 25 mph    
Max Gust Speed 38 mph    
Visibility 6.2 miles    
Events      
T = Trace of Precipitation, MM = Missing Value Source: Averaged Metar Reports

Daily Weather History Graph

Daily Weather History Graph

Search for Another Location

Airport or City:

Trip Planner

Search our weather history database for the weather conditions in past years. The results will help you decide how hot, cold, wet, or windy it might be!

Date:

Astronomy

Feb. 11, 2013 Rise Set
Actual Time 8:20 AM CET 6:47 PM CET
Civil Twilight 7:51 AM CET 7:16 PM CET
Nautical Twilight 7:18 AM CET 7:49 PM CET
Astronomical Twilight 6:46 AM CET 8:21 PM CET
Moon 8:34 AM CET (2/11) 8:31 PM CET (2/11)
Length of Visible Light 11h 25m
Length of Day
10h 27m
New Moon, 2% of the Moon is Illuminated
Feb 11
New Moon
Feb 17
First Quarter
Feb 25
Full
Mar 4
Last Quarter
Mar 11
New

Hourly Weather History & Observations

Time (CET) Temp. Windchill Dew Point Humidity Pressure Visibility Wind Dir Wind Speed Gust Speed Precip Events Conditions
7:00 AM 32.0 °F 20.8 °F 30.2 °F 93% 29.71 in 6.2 mi West 17.3 mph - N/A   Mostly Cloudy
7:30 AM 32.0 °F 21.2 °F 30.2 °F 93% 29.74 in 6.2 mi West 16.1 mph - N/A   Mostly Cloudy
8:00 AM 30.2 °F 19.8 °F 30.2 °F 100% 29.74 in 6.2 mi West 13.8 mph - N/A   Mostly Cloudy
8:30 AM 30.2 °F 20.2 °F 30.2 °F 100% 29.77 in 6.2 mi West 12.7 mph - N/A   Scattered Clouds
9:00 AM 30.2 °F 20.2 °F 30.2 °F 100% 29.77 in 6.2 mi West 12.7 mph - N/A   Partly Cloudy
9:30 AM 32.0 °F 23.0 °F 30.2 °F 93% 29.77 in 6.2 mi West 11.5 mph - N/A   Partly Cloudy
10:00 AM 32.0 °F 21.6 °F 28.4 °F 87% 29.80 in 6.2 mi WNW 15.0 mph - N/A   Partly Cloudy
10:30 AM 33.8 °F 23.5 °F 28.4 °F 81% 29.80 in 6.2 mi WNW 16.1 mph - N/A   Partly Cloudy
11:00 AM 35.6 °F 25.2 °F 28.4 °F 75% 29.80 in - West 18.4 mph - N/A   Clear
11:30 AM 35.6 °F 25.5 °F 30.2 °F 81% 29.80 in - WNW 17.3 mph - N/A   Clear
12:00 PM 37.4 °F 27.5 °F 30.2 °F 75% 29.80 in - WNW 18.4 mph - N/A   Clear
12:30 PM 39.2 °F 30.2 °F 30.2 °F 70% 29.83 in 6.2 mi WNW 17.3 mph 29.9 mph N/A   Scattered Clouds
1:00 PM 39.2 °F 29.6 °F 28.4 °F 65% 29.80 in 6.2 mi WNW 19.6 mph - N/A   Mostly Cloudy
1:30 PM 41.0 °F 31.9 °F 28.4 °F 61% 29.80 in 6.2 mi WNW 19.6 mph 32.2 mph N/A   Mostly Cloudy
2:00 PM 41.0 °F 30.7 °F 26.6 °F 57% 29.80 in 6.2 mi WNW 25.3 mph 38.0 mph N/A   Mostly Cloudy
2:30 PM 41.0 °F 31.1 °F 28.4 °F 61% 29.80 in 6.2 mi NW 23.0 mph - N/A   Mostly Cloudy
3:00 PM 41.0 °F 31.6 °F 26.6 °F 57% 29.80 in 6.2 mi WNW 20.7 mph - N/A   Mostly Cloudy
3:30 PM 41.0 °F 31.4 °F 24.8 °F 53% 29.80 in 6.2 mi NW 21.9 mph - N/A   Mostly Cloudy
4:00 PM 42.8 °F 35.1 °F 24.8 °F 49% 29.83 in 6.2 mi WNW 16.1 mph - N/A   Mostly Cloudy
4:30 PM 41.0 °F 32.2 °F 24.8 °F 53% 29.83 in 6.2 mi NW 18.4 mph - N/A   Mostly Cloudy
5:00 PM 39.2 °F 29.8 °F 23.0 °F 52% 29.83 in 6.2 mi NW 18.4 mph - N/A   Scattered Clouds
5:30 PM 41.0 °F 31.1 °F 24.8 °F 53% 29.83 in 6.2 mi NW 23.0 mph - N/A   Partly Cloudy
6:00 PM 39.2 °F 30.2 °F 24.8 °F 56% 29.83 in 6.2 mi NW 17.3 mph - N/A   Partly Cloudy
6:30 PM 37.4 °F 28.2 °F 24.8 °F 60% 29.83 in 6.2 mi WNW 16.1 mph - N/A   Partly Cloudy
7:00 PM 35.6 °F 25.9 °F 24.8 °F 65% 29.83 in - WNW 16.1 mph - N/A   Clear
7:30 PM 33.8 °F 23.9 °F 23.0 °F 65% 29.86 in - WNW 15.0 mph - N/A   Clear
8:00 PM 33.8 °F 23.5 °F 24.8 °F 70% 29.86 in - NW 16.1 mph - N/A   Clear
8:30 PM 33.8 °F 24.8 °F 24.8 °F 70% 29.86 in - WNW 12.7 mph - N/A   Clear
9:00 PM 33.8 °F 24.3 °F 24.8 °F 70% 29.86 in - WNW 13.8 mph - N/A   Clear
9:30 PM 32.0 °F 23.0 °F 24.8 °F 75% 29.89 in - West 11.5 mph - N/A   Clear